Jackson, KY

11:57 PM EDT on July 24, 2016 (GMT -0400)
Carroll

Weather History for KJKL - June, 2012

Change the Weather History Date:

Friday, June 29, 2012

  Actual Average Record
Temperature  
Mean Temperature 89 °F 75 °F  
Max Temperature 104 °F 84 °F 104 °F (2012)
Min Temperature 73 °F 65 °F 57 °F (2015)
Degree Days  
Heating Degree Days 0 0  
Month to date heating degree days 12 9  
Since 1 June heating degree days 12 9  
Since 1 July heating degree days 3339 4231  
Cooling Degree Days 24 10  
Month to date cooling degree days 231 214  
Year to date cooling degree days 482 350  
Since 1 June cooling degree days 231 214  
Growing Degree Days 38 (Base 50)    
Moisture  
Dew Point 61 °F    
Average Humidity 45    
Maximum Humidity 64    
Minimum Humidity 25    
Precipitation  
Precipitation T in 0.15 in 2.05 in (1998)
Month to date precipitation 1.91 4.56  
Year to date precipitation 21.61 25.07  
Snow  
Snow 0.00 in 0.00 in - ()
Month to date snowfall 0.0 0.0  
Since 1 June snowfall 0.0 0.0  
Since 1 July snowfall 14.2 23.5  
Snow Depth 0.00 in    
Sea Level Pressure  
Sea Level Pressure 29.89 in    
Wind  
Wind Speed 3 mph (East)    
Max Wind Speed 17 mph    
Max Gust Speed 37 mph    
Visibility 10 miles    
Events      
T = Trace of Precipitation, MM = Missing Value Source: NWS Daily Summary

Daily Weather History Graph

Daily Weather History Graph

Search for Another Location

Airport or City:

Trip Planner

Search our weather history database for the weather conditions in past years. The results will help you decide how hot, cold, wet, or windy it might be!

Date:

Astronomy

Jun. 29, 2012 Rise Set
Actual Time 6:14 AM EDT 8:58 PM EDT
Civil Twilight 5:43 AM EDT 9:29 PM EDT
Nautical Twilight 5:04 AM EDT 10:08 PM EDT
Astronomical Twilight 4:20 AM EDT 10:52 PM EDT
Moon 4:45 PM EDT (6/29) 2:22 AM EDT (6/29)
Length of Visible Light 15h 45m
Length of Day
14h 43m
Waxing Gibbous, 77% of the Moon is Illuminated
Jun 29
Waxing Gibbous
Jul 3
Full
Jul 10
Last Quarter
Jul 19
New
Jul 26
First Quarter

Hourly Weather History & Observations

Time (EDT) Temp. Heat Index Dew Point Humidity Pressure Visibility Wind Dir Wind Speed Gust Speed Precip Events Conditions
12:53 AM 82.0 °F 82.0 °F 57.9 °F 44% 29.91 in 10.0 mi Variable 3.5 mph - N/A   Clear
1:53 AM 79.0 °F - 57.9 °F 48% 29.91 in 10.0 mi Calm Calm - N/A   Clear
2:53 AM 77.0 °F - 59.0 °F 54% 29.90 in 10.0 mi Calm Calm - N/A   Clear
3:53 AM 75.9 °F - 57.9 °F 54% 29.89 in 10.0 mi Variable 3.5 mph - N/A   Clear
4:53 AM 75.9 °F - 57.0 °F 52% 29.90 in 10.0 mi Calm Calm - N/A   Clear
5:53 AM 73.9 °F - 57.0 °F 55% 29.91 in 10.0 mi Calm Calm - N/A   Clear
6:53 AM 73.9 °F - 57.9 °F 57% 29.93 in 10.0 mi Calm Calm - N/A   Clear
7:53 AM 77.0 °F - 57.9 °F 52% 29.94 in 10.0 mi Calm Calm - N/A   Clear
8:53 AM 80.1 °F 80.9 °F 60.1 °F 50% 29.95 in 10.0 mi Calm Calm - N/A   Clear
9:53 AM 82.9 °F 84.0 °F 63.0 °F 51% 29.93 in 10.0 mi Calm Calm - N/A   Clear
10:53 AM 87.1 °F 88.3 °F 64.0 °F 46% 29.92 in 10.0 mi Calm Calm - N/A   Clear
11:53 AM 89.1 °F 90.0 °F 63.0 °F 42% 29.92 in 10.0 mi Variable 3.5 mph - N/A   Clear
12:53 PM 93.0 °F 94.2 °F 63.0 °F 37% 29.91 in 10.0 mi Variable 4.6 mph - N/A   Clear
1:53 PM 96.1 °F 98.3 °F 64.0 °F 35% 29.89 in 10.0 mi Variable 3.5 mph - N/A   Clear
2:53 PM 99.0 °F 102.3 °F 64.9 °F 33% 29.87 in 10.0 mi Variable 3.5 mph - N/A   Clear
3:53 PM 100.9 °F 104.0 °F 64.0 °F 30% 29.85 in 10.0 mi Calm Calm - N/A   Clear
4:53 PM 102.0 °F 105.2 °F 64.0 °F 29% 29.81 in 10.0 mi Variable 6.9 mph - N/A   Clear
5:53 PM 102.9 °F 104.2 °F 61.0 °F 25% 29.80 in 10.0 mi Variable 5.8 mph - N/A   Clear
6:53 PM 99.0 °F 100.5 °F 62.1 °F 30% 29.81 in 10.0 mi Variable 5.8 mph - N/A   Clear
7:53 PM 86.0 °F 86.8 °F 63.0 °F 46% 29.89 in 8.0 mi North 9.2 mph 26.5 mph N/A   Scattered Clouds
8:53 PM 77.0 °F - 62.1 °F 60% 29.91 in 10.0 mi Variable 4.6 mph - N/A   Clear
9:53 PM 75.9 °F - 62.1 °F 62% 29.90 in 10.0 mi Variable 4.6 mph - N/A   Clear
10:53 PM 75.9 °F - 61.0 °F 60% 29.90 in 10.0 mi SSE 6.9 mph - N/A   Clear
11:53 PM 73.9 °F - 61.0 °F 64% 29.89 in 10.0 mi ESE 3.5 mph - N/A   Clear